Placerville, CA

7:32 PM PDT on April 25, 2017 (GMT -0700)
Placerville

Weather History for KPVF - April, 2013

Change the Weather History Date:

Friday, April 19, 2013

  Actual Average Record
Temperature  
Mean Temperature 58 °F -  
Max Temperature 69 °F 63 °F 77 °F (2016)
Min Temperature 48 °F 39 °F 41 °F (2017)
Degree Days  
Heating Degree Days 6    
Growing Degree Days 8 (Base 50)    
Moisture  
Dew Point 33 °F    
Average Humidity 36    
Maximum Humidity 51    
Minimum Humidity 26    
Precipitation  
Precipitation 0.00 in - - ()
Sea Level Pressure  
Sea Level Pressure 30.21 in    
Wind  
Wind Speed 7 mph (NE)    
Max Wind Speed 13 mph    
Max Gust Speed 16 mph    
Visibility 10 miles    
Events      
Averages and records for this station are not official NWS values.
T = Trace of Precipitation, MM = Missing Value Source: NWS Daily Summary

Daily Weather History Graph

Daily Weather History Graph

Search for Another Location

Airport or City:

Trip Planner

Search our weather history database for the weather conditions in past years. The results will help you decide how hot, cold, wet, or windy it might be!

Date:

Astronomy

Apr. 19, 2013 Rise Set
Actual Time 6:20 AM PDT 7:44 PM PDT
Civil Twilight 5:52 AM PDT 8:11 PM PDT
Nautical Twilight 5:19 AM PDT 8:45 PM PDT
Astronomical Twilight 4:44 AM PDT 9:20 PM PDT
Moon 1:37 PM PDT (4/19) 2:35 AM PDT (4/19)
Length of Visible Light 14h 19m
Length of Day
13h 23m
Waxing Gibbous, 62% of the Moon is Illuminated
Apr 19
Waxing Gibbous
Apr 25
Full
May 2
Last Quarter
May 9
New
May 17
First Quarter

Hourly Weather History & Observations

Time (PDT) Temp. Dew Point Humidity Pressure Visibility Wind Dir Wind Speed Gust Speed Precip Events Conditions
12:15 AM 53.6 °F 33.8 °F 47% 30.25 in 10.0 mi ENE 11.5 mph - N/A   Clear
12:35 AM 53.6 °F 33.8 °F 47% 30.25 in 10.0 mi ENE 9.2 mph - N/A   Clear
12:55 AM 53.6 °F 32.0 °F 44% 30.24 in 10.0 mi East 11.5 mph - N/A   Clear
1:15 AM 55.4 °F 32.0 °F 41% 30.24 in 10.0 mi ENE 10.4 mph - N/A   Clear
1:35 AM 53.6 °F 30.2 °F 41% 30.24 in 10.0 mi NE 8.1 mph - N/A   Clear
1:55 AM 55.4 °F 28.4 °F 36% 30.24 in 10.0 mi NNE 6.9 mph - N/A   Clear
2:15 AM 55.4 °F 28.4 °F 36% 30.24 in 10.0 mi NE 9.2 mph - N/A   Clear
2:35 AM 53.6 °F 30.2 °F 41% 30.23 in 10.0 mi ENE 8.1 mph - N/A   Clear
2:55 AM 53.6 °F 28.4 °F 38% 30.23 in 10.0 mi ENE 8.1 mph - N/A   Clear
3:15 AM 53.6 °F 28.4 °F 38% 30.23 in 10.0 mi ENE 8.1 mph - N/A   Clear
3:55 AM 53.6 °F 26.6 °F 35% 30.22 in 10.0 mi East 6.9 mph - N/A   Clear
4:15 AM 55.4 °F 24.8 °F 31% 30.22 in 10.0 mi East 4.6 mph - N/A   Clear
4:35 AM 50.0 °F 26.6 °F 40% 30.23 in 10.0 mi East 4.6 mph - N/A   Clear
4:55 AM 53.6 °F 24.8 °F 33% 30.23 in 10.0 mi ESE 4.6 mph - N/A   Clear
5:15 AM 55.4 °F 24.8 °F 31% 30.23 in 10.0 mi Calm Calm - N/A   Clear
5:35 AM 55.4 °F 24.8 °F 31% 30.23 in 10.0 mi ESE 3.5 mph - N/A   Clear
5:55 AM 53.6 °F 24.8 °F 33% 30.24 in 10.0 mi Calm Calm - N/A   Clear
6:15 AM 55.4 °F 24.8 °F 31% 30.25 in 10.0 mi ESE 3.5 mph - N/A   Clear
6:35 AM 51.8 °F 24.8 °F 35% 30.25 in 10.0 mi ESE 6.9 mph - N/A   Clear
6:55 AM 48.2 °F 28.4 °F 46% 30.25 in 10.0 mi ESE 8.1 mph - N/A   Clear
7:15 AM 51.8 °F 26.6 °F 38% 30.26 in 10.0 mi ESE 8.1 mph - N/A   Clear
7:35 AM 53.6 °F 28.4 °F 38% 30.26 in 10.0 mi ESE 6.9 mph - N/A   Clear
7:55 AM 53.6 °F 28.4 °F 38% 30.27 in 10.0 mi ESE 8.1 mph - N/A   Clear
8:15 AM 53.6 °F 32.0 °F 44% 30.27 in 10.0 mi ESE 6.9 mph - N/A   Clear
8:35 AM 55.4 °F 32.0 °F 41% 30.27 in 10.0 mi ESE 6.9 mph - N/A   Clear
8:55 AM 57.2 °F 33.8 °F 41% 30.28 in 10.0 mi ESE 4.6 mph - N/A   Clear
9:15 AM 59.0 °F 33.8 °F 39% 30.28 in 10.0 mi SE 3.5 mph - N/A   Clear
9:35 AM 59.0 °F 35.6 °F 42% 30.28 in 10.0 mi South 3.5 mph - N/A   Clear
9:55 AM 59.0 °F 35.6 °F 42% 30.28 in 10.0 mi Calm Calm - N/A   Clear
10:15 AM 60.8 °F 32.0 °F 34% 30.28 in 10.0 mi SW 4.6 mph - N/A   Clear
10:35 AM 62.6 °F 35.6 °F 37% 30.28 in 10.0 mi West 4.6 mph - N/A   Clear
10:55 AM 62.6 °F 33.8 °F 34% 30.29 in 10.0 mi South 4.6 mph - N/A   Clear
11:15 AM 64.4 °F 35.6 °F 34% 30.28 in 10.0 mi West 5.8 mph - N/A   Clear
11:35 AM 64.4 °F 35.6 °F 34% 30.28 in 10.0 mi Calm Calm - N/A   Clear
11:55 AM 64.4 °F 35.6 °F 34% 30.28 in 10.0 mi SSW 4.6 mph - N/A   Clear
12:15 PM 66.2 °F 32.0 °F 28% 30.27 in 10.0 mi WNW 4.6 mph - N/A   Clear
12:35 PM 66.2 °F 32.0 °F 28% 30.27 in 10.0 mi Calm Calm - N/A   Clear
12:55 PM 66.2 °F 33.8 °F 30% 30.26 in 10.0 mi West 8.1 mph - N/A   Clear
1:15 PM 66.2 °F 35.6 °F 32% 30.25 in 10.0 mi West 6.9 mph - N/A   Clear
1:35 PM 68.0 °F 33.8 °F 28% 30.24 in 10.0 mi West 5.8 mph - N/A   Clear
1:55 PM 68.0 °F 32.0 °F 26% 30.23 in 10.0 mi Calm Calm - N/A   Clear
2:15 PM 69.8 °F 35.6 °F 28% 30.22 in 10.0 mi SW 6.9 mph - N/A   Clear
2:35 PM 68.0 °F 35.6 °F 30% 30.21 in 10.0 mi WNW 8.1 mph - N/A   Clear
2:55 PM 69.8 °F 39.2 °F 33% 30.20 in 10.0 mi West 9.2 mph - N/A   Clear
3:15 PM 69.8 °F 39.2 °F 33% 30.20 in 10.0 mi West 5.8 mph 16.1 mph N/A   Clear
3:35 PM 69.8 °F 37.4 °F 31% 30.19 in 10.0 mi WNW 8.1 mph - N/A   Clear
3:55 PM 68.0 °F 35.6 °F 30% 30.19 in 10.0 mi WSW 6.9 mph - N/A   Clear
4:15 PM 68.0 °F 35.6 °F 30% 30.18 in 10.0 mi WNW 3.5 mph - N/A   Clear
4:35 PM 68.0 °F 35.6 °F 30% 30.18 in 10.0 mi NW 6.9 mph - N/A   Clear
4:55 PM 68.0 °F 32.0 °F 26% 30.17 in 10.0 mi WNW 8.1 mph - N/A   Clear
5:15 PM 68.0 °F 35.6 °F 30% 30.17 in 10.0 mi WNW 8.1 mph - N/A   Clear
5:35 PM 68.0 °F 37.4 °F 33% 30.17 in 10.0 mi West 8.1 mph - N/A   Clear
5:55 PM 68.0 °F 37.4 °F 33% 30.16 in 10.0 mi West 5.8 mph - N/A   Clear
6:15 PM 68.0 °F 37.4 °F 33% 30.16 in 10.0 mi WNW 6.9 mph - N/A   Clear
6:35 PM 66.2 °F 37.4 °F 35% 30.16 in 10.0 mi NW 5.8 mph - N/A   Clear
6:55 PM 66.2 °F 37.4 °F 35% 30.15 in 10.0 mi NW 4.6 mph - N/A   Clear
7:15 PM 66.2 °F 37.4 °F 35% 30.15 in 10.0 mi NW 3.5 mph - N/A   Clear
7:35 PM 64.4 °F 35.6 °F 34% 30.14 in 10.0 mi WNW 3.5 mph - N/A   Clear
7:55 PM 64.4 °F 35.6 °F 34% 30.14 in 10.0 mi NNW 3.5 mph - N/A   Clear
8:15 PM 64.4 °F 35.6 °F 34% 30.14 in 10.0 mi WNW 3.5 mph - N/A   Clear
8:35 PM 64.4 °F 35.6 °F 34% 30.14 in 10.0 mi Calm Calm - N/A   Clear
8:55 PM 64.4 °F 35.6 °F 34% 30.15 in 10.0 mi NW 3.5 mph - N/A   Clear
9:15 PM 60.8 °F 37.4 °F 42% 30.15 in 10.0 mi ESE 4.6 mph - N/A   Partly Cloudy
9:35 PM 62.6 °F 37.4 °F 39% 30.15 in 10.0 mi East 3.5 mph - N/A   Partly Cloudy
9:55 PM 60.8 °F 37.4 °F 42% 30.15 in 10.0 mi ENE 3.5 mph - N/A   Partly Cloudy
10:15 PM 60.8 °F 37.4 °F 42% 30.15 in 10.0 mi ENE 8.1 mph - N/A   Partly Cloudy
10:35 PM 59.0 °F 37.4 °F 45% 30.15 in 10.0 mi NE 5.8 mph - N/A   Partly Cloudy
10:55 PM 57.2 °F 39.2 °F 51% 30.14 in 10.0 mi NE 8.1 mph - N/A   Clear
11:15 PM 57.2 °F 39.2 °F 51% 30.14 in 10.0 mi ENE 11.5 mph - N/A   Partly Cloudy
11:35 PM 57.2 °F 37.4 °F 48% 30.13 in 10.0 mi NE 11.5 mph - N/A   Partly Cloudy
11:55 PM 57.2 °F 39.2 °F 51% 30.13 in 10.0 mi ENE 12.7 mph - N/A   Scattered Clouds